Wind_Speed
24 25 27 27 27 27 26 26 25 24 23 21 19 17 15 14 14 14 14 14 14 12 12 11 10 10 10 9 9 8 8 9 9 11 11 11 12 12 14 15 16 16 17 18
29 28 28 29 30 30 30 29 28 28 27 25 23 20 19 18 17 17 16 16 16 15 14 13 13 12 11 10 10 9 9 9 10 11 11 11 11 12 13 14 15 16 17 18
33 32 31 32 31 31 31 30 30 29 29 27 25 23 21 21 20 20 19 18 18 18 16 15 14 14 14 13 12 12 11 11 11 11 12 12 12 13 14 15 16 17 18 18
37 35 37 35 33 33 33 32 32 31 30 29 27 25 24 23 23 22 21 20 20 20 19 19 18 17 16 15 15 14 15 14 14 14 14 14 15 15 15 15 15 17 17 18
40 40 40 38 36 35 34 34 33 31 30 29 28 27 25 25 25 24 22 22 22 22 22 21 20 20 19 18 18 18 17 16 16 16 16 16 16 16 16 17 18 18 18 18
42 42 42 40 39 38 37 35 32 31 30 29 28 27 26 26 26 25 24 24 24 24 24 23 23 21 21 21 20 20 20 19 19 19 18 18 18 18 18 19 20 20 19 20
42 42 42 40 39 38 36 34 31 30 30 29 28 27 27 27 26 26 25 25 25 26 25 24 24 23 23 22 23 23 22 22 21 21 20 20 20 21 21 21 22 21 22 22
39 40 39 38 38 36 34 32 31 30 30 29 28 28 27 26 25 25 25 25 26 25 24 24 24 24 24 24 24 24 24 23 22 22 22 22 22 23 23 24 24 24 24 24
35 36 36 35 35 34 32 32 31 30 29 28 27 27 26 26 25 24 25 25 25 25 25 25 26 25 25 25 26 25 24 25 25 25 24 24 24 24 24 24 25 25 26 26
32 32 33 32 32 32 31 30 29 28 27 27 26 26 25 25 25 25 25 24 24 24 25 25 25 26 26 26 27 27 26 25 26 26 25 25 25 25 25 25 26 27 28 29
31 31 32 32 31 30 29 28 28 27 26 26 25 25 25 24 24 24 23 23 23 23 23 23 24 24 25 25 26 27 27 26 26 25 24 25 25 25 26 27 27 28 29 30
31 31 30 30 30 29 28 28 27 26 26 25 25 25 24 23 23 23 23 23 22 22 22 21 21 22 22 23 23 23 23 24 24 25 24 24 24 25 27 28 28 29 29 30
30 29 29 28 28 27 26 26 25 25 25 24 23 22 22 21 21 22 22 21 21 21 21 21 20 19 19 19 20 21 22 23 23 23 24 24 24 25 26 27 28 28 30 31
28 27 27 27 26 26 25 24 24 23 23 22 21 21 21 21 20 20 20 20 20 20 20 19 18 17 17 18 19 20 21 21 22 22 22 23 24 24 25 26 26 27 28 30
26 27 26 25 24 23 22 22 22 21 20 19 19 19 19 18 18 17 17 17 17 17 17 16 16 15 14 15 16 17 18 18 19 21 22 22 23 23 23 24 25 27 29 30
25 25 24 23 22 20 20 20 20 19 18 18 17 16 16 15 15 15 15 16 16 15 15 14 15 14 13 14 15 16 17 18 20 20 21 22 22 23 23 25 27 28 30 31
23 22 22 22 21 20 19 19 19 17 16 15 15 14 14 14 14 14 14 14 13 13 13 13 13 13 13 14 15 16 16 17 18 19 20 21 22 23 24 26 27 28 30 31
20 19 19 20 20 19 18 18 17 16 15 14 13 13 13 12 12 12 11 11 11 11 11 11 12 13 14 15 16 16 16 16 18 19 20 21 22 23 24 26 27 28 29 30
17 15 15 15 16 16 16 15 15 15 14 13 13 12 11 10 10 9 9 9 9 9 10 10 11 13 14 14 13 14 15 16 17 18 20 21 22 23 25 26 27 28 28 29
16 15 14 14 14 13 13 13 13 12 12 11 11 10 9 8 8 8 8 8 8 8 8 9 10 11 11 12 13 14 16 17 18 19 20 22 23 25 26 26 27 27 28 28
15 14 14 13 13 12 12 12 12 11 11 10 9 9 8 7 8 8 9 8 8 8 9 9 10 11 12 13 14 15 16 18 19 21 22 23 24 25 25 26 26 26 27 27
14 14 13 12 12 11 11 10 10 10 10 9 8 8 7 8 8 9 9 9 10 9 10 11 12 14 15 16 16 18 19 21 22 23 24 24 24 25 25 25 25 25 25 25
14 13 13 12 11 10 9 9 9 9 9 8 8 8 8 8 8 8 9 10 10 11 12 14 15 16 17 18 19 20 21 22 23 24 24 24 24 24 24 24 24 24 24 24
14 13 12 11 10 10 9 8 8 8 8 8 8 8 9 9 9 10 11 12 13 14 15 17 18 19 20 21 21 22 23 23 24 24 25 24 24 24 24 23 23 23 23 22
14 14 12 11 11 10 9 8 8 8 8 8 8 9 10 11 11 12 13 14 15 16 18 19 20 21 21 22 23 23 24 24 25 25 24 24 23 23 22 22 22 21 21 21
14 13 12 11 10 9 8 8 8 8 8 8 9 10 12 13 14 15 15 16 18 19 20 21 21 22 23 23 24 24 25 25 24 24 23 22 22 21 21 21 20 20 19 19
12 12 11 10 9 8 8 8 8 8 9 10 11 12 13 15 16 17 18 19 20 21 22 22 23 23 24 24 24 24 24 24 23 22 22 21 20 20 20 20 19 18 18 18
Wind_Direction
240 238 240 244 249 254 260 265 271 276 283 288 291 290 290 291 293 292 289 285 286 293 294 291 290 286 292 298 301 299 288 272 266 260 255 247 243 242 240 241 246 247 246 248
246 245 246 249 252 257 262 266 271 276 281 285 287 286 285 284 287 289 285 281 279 285 285 282 283 286 288 292 292 292 287 275 269 264 261 257 251 251 249 249 251 250 250 253
248 250 252 253 256 260 263 267 270 274 278 280 282 282 280 279 280 282 281 276 274 279 282 282 280 280 282 282 284 282 280 275 269 266 262 262 263 259 257 257 258 255 255 258
248 250 251 255 257 262 266 269 273 275 276 276 278 279 277 275 275 276 276 273 270 272 276 278 275 277 277 276 280 280 276 274 270 267 264 263 263 264 260 259 258 258 259 261
247 249 252 254 258 262 265 269 272 275 276 276 277 277 274 272 270 271 270 269 270 274 278 277 274 272 272 273 274 275 273 271 268 266 263 263 264 266 263 261 262 262 262 263
246 249 252 256 259 262 266 269 271 273 274 274 274 273 272 269 267 266 267 268 269 272 274 273 270 270 271 271 271 271 269 268 267 266 263 261 262 263 262 261 263 265 266 266
246 249 253 256 259 262 265 268 268 269 271 272 272 271 270 269 267 265 266 266 270 273 272 273 270 269 271 268 269 266 265 266 267 264 263 262 262 265 264 264 265 268 270 270
245 247 251 255 257 260 262 264 266 267 268 269 270 269 269 269 268 267 266 266 269 272 272 272 271 270 270 268 267 264 263 261 261 262 262 260 263 265 266 265 266 269 272 274
246 248 251 252 255 258 260 262 264 265 267 268 268 268 268 268 267 268 268 267 268 270 271 271 269 268 268 265 264 262 261 258 259 261 262 261 261 262 265 267 269 272 273 274
245 246 248 250 252 256 258 260 262 263 265 265 266 268 268 268 267 268 268 268 267 267 268 268 267 265 266 261 259 259 259 258 259 261 262 264 260 263 268 270 271 273 273 275
245 246 247 249 252 253 254 256 259 260 262 264 264 266 268 268 268 267 267 268 267 267 267 268 267 265 263 260 258 257 256 256 257 258 259 262 264 268 271 271 273 275 277 276
244 245 247 249 250 251 252 253 256 259 262 263 265 267 265 264 265 263 266 266 265 266 268 269 269 266 260 258 255 252 250 253 257 258 262 264 264 269 272 274 276 278 276 277
244 245 246 248 251 250 250 253 256 258 260 263 266 265 263 262 262 262 263 263 264 265 266 268 266 262 258 255 253 253 253 255 259 262 263 265 267 271 274 276 278 280 280 280
242 244 246 245 246 247 247 251 254 257 259 261 262 261 260 260 259 260 261 263 264 263 262 262 259 256 254 252 251 252 255 257 260 264 264 266 270 273 276 278 279 280 282 285
237 240 242 243 244 244 243 247 250 253 256 257 259 260 259 256 255 256 259 261 260 258 256 254 252 249 248 250 255 257 258 259 263 265 267 271 274 276 279 281 284 286 288 290
235 237 238 239 238 239 242 245 246 250 254 256 258 257 256 254 254 254 257 258 256 253 252 251 250 251 252 256 261 262 262 263 264 267 268 273 277 280 283 286 288 290 292 295
230 232 234 234 235 238 241 242 244 248 250 250 250 250 250 249 250 252 254 252 249 250 250 249 248 251 256 259 263 265 265 266 267 269 273 277 280 283 287 291 294 295 297 300
225 227 226 228 230 232 234 236 239 241 241 241 242 243 244 247 248 246 243 241 241 244 247 247 249 253 257 260 263 265 265 267 271 275 280 282 286 289 292 296 298 300 302 304
213 215 217 221 224 226 227 228 230 232 234 235 237 238 240 240 234 232 232 231 238 244 249 252 257 261 262 264 265 269 275 278 281 284 287 289 293 296 299 302 303 305 306 307
206 211 215 216 217 216 215 214 216 220 221 221 223 226 226 223 219 220 225 233 240 246 251 255 260 264 266 269 275 282 285 286 288 290 293 295 298 301 303 304 305 307 308 309
201 203 205 206 206 205 205 205 206 208 207 208 208 207 210 215 218 223 230 239 246 251 257 263 270 274 276 280 285 289 292 294 296 297 298 300 301 303 304 305 306 308 309 311
193 194 194 193 193 192 193 194 196 199 200 200 203 209 216 223 229 236 242 248 251 255 263 271 277 280 282 286 289 292 295 296 297 298 300 301 303 304 305 306 308 310 311 313
183 183 183 184 184 183 185 190 194 198 202 205 211 217 223 231 241 249 253 257 261 268 274 278 281 283 286 289 291 293 295 297 298 300 302 303 304 305 305 307 308 310 312 313
176 176 177 178 180 181 184 189 196 203 208 213 220 228 236 244 252 261 266 269 273 276 279 282 285 287 290 291 292 294 296 298 299 301 302 302 303 303 304 306 307 309 311 313
176 175 177 179 182 186 189 195 203 208 216 225 234 242 250 257 264 270 274 277 280 282 284 286 287 290 291 292 293 294 296 298 299 300 300 300 301 302 302 304 306 308 310 312
174 178 182 187 190 193 199 206 212 221 229 239 247 256 261 265 270 274 277 280 282 284 285 287 289 291 292 293 294 295 296 297 298 298 298 299 299 300 301 303 305 306 309 311
176 180 183 188 195 206 216 224 230 237 245 252 261 267 270 273 275 277 279 282 285 287 289 290 292 293 293 294 294 295 296 296 296 296 297 298 299 300 300 302 304 306 308 310
Height
5808 5811 5813 5814 5816 5818 5819 5821 5823 5824 5825 5826 5827 5828 5828 5828 5828 5828 5827 5827 5826 5826 5825 5824 5824 5823 5822 5821 5820 5819 5818 5818 5818 5819 5819 5820 5820 5821 5822 5823 5824 5825 5827 5828
5802 5805 5807 5809 5810 5812 5814 5815 5817 5818 5820 5821 5822 5823 5823 5824 5824 5823 5823 5823 5823 5822 5822 5821 5821 5820 5819 5818 5817 5817 5816 5816 5817 5817 5817 5818 5818 5819 5820 5820 5821 5822 5823 5824
5795 5798 5800 5802 5804 5806 5808 5809 5811 5812 5814 5815 5816 5817 5818 5818 5819 5819 5819 5818 5818 5818 5818 5817 5817 5817 5816 5815 5815 5814 5814 5814 5814 5815 5815 5816 5816 5816 5817 5817 5818 5818 5819 5820
5788 5791 5792 5797 5798 5800 5801 5803 5804 5806 5807 5808 5809 5810 5811 5812 5812 5813 5812 5813 5813 5813 5813 5813 5812 5812 5812 5812 5811 5811 5811 5811 5812 5812 5812 5813 5813 5813 5813 5813 5814 5814 5814 5815
5779 5782 5784 5788 5790 5793 5794 5796 5798 5799 5800 5801 5802 5803 5804 5805 5805 5806 5806 5807 5807 5808 5808 5807 5807 5806 5807 5807 5807 5806 5807 5807 5807 5807 5808 5808 5809 5809 5808 5809 5809 5809 5810 5810
5770 5773 5775 5780 5783 5784 5788 5788 5791 5791 5792 5793 5794 5796 5798 5797 5798 5798 5799 5800 5800 5801 5801 5801 5801 5801 5801 5801 5801 5801 5800 5801 5802 5802 5803 5803 5803 5803 5803 5804 5804 5804 5804 5805
5761 5764 5767 5771 5774 5777 5780 5782 5783 5784 5785 5786 5787 5789 5790 5790 5790 5791 5792 5792 5793 5793 5794 5794 5794 5795 5795 5795 5795 5795 5795 5796 5796 5796 5797 5797 5797 5798 5798 5798 5798 5798 5797 5798
5753 5756 5761 5763 5766 5769 5772 5773 5774 5776 5777 5778 5780 5781 5782 5782 5783 5783 5784 5785 5786 5786 5786 5787 5787 5787 5788 5788 5788 5787 5788 5788 5789 5790 5791 5791 5791 5791 5791 5791 5791 5791 5791 5790
5745 5750 5752 5755 5758 5760 5762 5765 5766 5768 5769 5771 5772 5773 5774 5775 5775 5776 5777 5777 5778 5778 5778 5779 5779 5780 5780 5780 5780 5780 5781 5781 5782 5783 5784 5784 5784 5784 5784 5784 5784 5783 5783 5782
5737 5740 5744 5747 5749 5752 5754 5756 5758 5760 5761 5763 5764 5765 5766 5767 5768 5768 5768 5769 5770 5770 5770 5771 5771 5771 5772 5772 5773 5773 5774 5774 5775 5776 5777 5777 5777 5777 5777 5777 5777 5776 5775 5774
5729 5733 5736 5739 5741 5744 5746 5748 5750 5752 5754 5755 5756 5758 5758 5759 5760 5760 5761 5761 5762 5762 5763 5763 5763 5763 5764 5764 5765 5765 5766 5767 5767 5768 5769 5770 5770 5769 5769 5769 5769 5768 5767 5766
5722 5725 5728 5731 5734 5736 5739 5741 5743 5745 5746 5748 5749 5750 5751 5751 5752 5753 5753 5754 5754 5755 5755 5756 5756 5756 5756 5757 5757 5758 5759 5760 5761 5761 5762 5762 5762 5763 5762 5762 5761 5760 5759 5757
5715 5718 5721 5724 5726 5728 5731 5733 5736 5737 5739 5740 5741 5742 5743 5744 5745 5745 5746 5746 5747 5748 5748 5748 5749 5749 5750 5750 5751 5752 5753 5754 5755 5756 5756 5756 5756 5756 5755 5754 5753 5752 5750 5749
5708 5711 5714 5716 5719 5721 5724 5726 5728 5730 5732 5733 5734 5735 5736 5737 5738 5738 5739 5740 5740 5741 5741 5742 5743 5743 5744 5745 5745 5746 5747 5748 5749 5749 5750 5750 5749 5749 5748 5747 5746 5745 5743 5741
5701 5704 5707 5710 5712 5715 5717 5720 5722 5723 5725 5726 5728 5729 5730 5731 5731 5732 5733 5734 5734 5735 5735 5736 5737 5738 5739 5740 5741 5742 5742 5743 5743 5744 5743 5743 5743 5742 5741 5740 5739 5738 5736 5734
5695 5698 5701 5704 5707 5709 5711 5714 5716 5718 5719 5721 5722 5723 5724 5725 5726 5727 5727 5728 5729 5730 5731 5731 5732 5733 5734 5735 5736 5737 5737 5738 5738 5738 5738 5738 5737 5736 5735 5734 5732 5730 5728 5725
5689 5693 5696 5699 5701 5704 5706 5708 5711 5713 5714 5716 5717 5718 5719 5720 5721 5722 5723 5724 5724 5726 5726 5727 5728 5729 5730 5731 5732 5732 5732 5733 5733 5733 5732 5732 5731 5730 5729 5727 5725 5722 5720 5717
5685 5688 5691 5694 5696 5699 5701 5703 5706 5708 5709 5711 5712 5714 5715 5716 5717 5718 5719 5720 5721 5722 5723 5724 5725 5725 5726 5727 5728 5728 5728 5728 5728 5728 5727 5726 5725 5723 5722 5720 5717 5714 5711 5708
5681 5684 5686 5689 5692 5694 5696 5699 5701 5703 5705 5707 5708 5710 5711 5712 5714 5715 5716 5717 5718 5719 5720 5721 5721 5722 5722 5723 5723 5723 5723 5723 5723 5722 5721 5720 5718 5716 5714 5712 5709 5706 5703 5700
5677 5680 5683 5686 5688 5691 5693 5695 5698 5700 5702 5704 5705 5707 5708 5710 5711 5712 5714 5715 5716 5717 5717 5718 5718 5719 5719 5719 5719 5719 5719 5718 5717 5716 5715 5713 5711 5709 5707 5704 5702 5699 5696 5693
5675 5678 5680 5683 5686 5688 5691 5693 5695 5697 5699 5701 5703 5705 5706 5708 5709 5710 5712 5713 5714 5714 5715 5715 5715 5715 5716 5715 5715 5714 5714 5713 5712 5710 5709 5707 5705 5702 5700 5697 5695 5692 5689 5686
5673 5676 5679 5682 5684 5686 5689 5691 5693 5696 5698 5700 5701 5703 5704 5706 5707 5708 5709 5710 5711 5711 5712 5712 5712 5712 5711 5711 5710 5709 5708 5707 5706 5704 5702 5700 5698 5696 5693 5691 5688 5685 5682 5679
5672 5675 5678 5681 5683 5685 5687 5690 5692 5694 5696 5698 5700 5702 5703 5704 5705 5706 5707 5708 5708 5708 5708 5708 5708 5707 5707 5706 5705 5704 5702 5701 5699 5697 5695 5693 5691 5689 5686 5684 5681 5679 5676 5673
5672 5675 5678 5680 5683 5685 5687 5689 5691 5693 5695 5697 5699 5700 5701 5702 5703 5704 5704 5704 5704 5704 5704 5703 5703 5702 5701 5700 5699 5697 5696 5694 5692 5690 5688 5686 5684 5682 5680 5677 5675 5672 5670 5667
5672 5675 5678 5680 5683 5685 5687 5689 5690 5692 5694 5695 5696 5698 5699 5699 5700 5700 5700 5700 5700 5700 5699 5698 5697 5696 5695 5694 5692 5691 5689 5687 5685 5684 5681 5679 5677 5675 5673 5671 5669 5666 5664 5661
5672 5675 5678 5680 5682 5684 5686 5688 5689 5691 5692 5693 5694 5695 5695 5696 5696 5696 5696 5695 5695 5694 5693 5692 5691 5690 5689 5687 5686 5684 5682 5680 5678 5676 5675 5673 5671 5669 5667 5665 5663 5660 5658 5656
5673 5675 5678 5680 5682 5684 5685 5687 5688 5689 5690 5691 5691 5692 5692 5692 5692 5691 5691 5690 5689 5688 5687 5686 5685 5683 5682 5680 5678 5676 5675 5673 5671 5669 5668 5666 5665 5663 5661 5659 5657 5655 5653 5651